Theta_e
336 338 340 347 346 347 347 346 348 347 346 345 345 344 342 341 341 342 342 343 343 344 344 344 344 344 343 343 342 342 343 343 344 343 343 343 343 344 346 346 346 346 347 346 344 344 343 342 342 342 342 343 342 342 341 341 342 341 341 341 338 339 340 340 339 339 339 337 338 338 337 338 338 338 339 338 336 336 336 335 333 330 329 330 333
337 338 341 344 346 347 347 347 346 346 346 344 343 342 342 341 340 341 342 342 342 343 343 345 347 348 346 344 344 345 344 343 343 343 345 344 343 345 346 346 347 346 346 345 343 342 342 341 342 343 343 342 341 340 341 342 342 342 341 341 338 338 338 338 337 337 337 338 338 338 336 336 336 338 338 337 337 336 336 335 335 330 328 332 335
339 341 341 344 347 347 347 347 346 346 343 343 342 340 339 339 340 340 341 341 341 342 342 345 346 346 346 346 345 344 344 345 345 345 347 348 347 347 347 347 346 347 346 345 343 343 342 340 341 341 341 340 340 340 341 342 342 342 341 340 337 336 336 336 336 337 336 336 336 335 336 337 335 336 337 338 336 336 336 336 335 335 330 335 335
340 342 342 344 346 347 347 346 346 345 343 342 341 341 340 340 340 341 341 341 341 342 343 344 346 346 346 346 345 345 344 344 344 345 346 346 345 345 346 346 346 345 345 344 343 341 341 341 341 341 339 339 339 341 341 341 341 341 340 339 337 336 335 335 335 335 335 335 334 331 330 326 332 336 339 338 336 335 336 334 335 337 336 336 335
341 342 342 343 343 346 347 346 345 344 343 343 341 341 341 341 342 342 341 339 339 339 340 343 344 344 344 344 344 344 343 344 347 348 347 347 347 346 346 345 345 344 344 344 343 342 340 339 340 340 339 339 339 340 341 341 341 340 340 340 337 336 336 335 334 334 334 334 332 329 324 325 330 336 336 336 338 336 336 335 334 335 333 332 335
340 341 341 342 342 344 346 345 344 343 342 342 340 340 341 339 341 341 340 341 341 340 340 342 342 341 343 344 345 344 343 343 344 347 347 346 346 346 346 345 344 344 344 344 343 342 341 340 338 339 339 339 339 340 340 341 340 339 339 339 337 336 335 334 334 333 332 331 330 324 323 324 327 331 336 336 335 335 336 336 335 334 333 332 336
340 340 341 341 342 343 345 345 343 342 342 342 339 340 341 339 340 340 339 341 341 341 342 341 340 343 343 344 343 342 343 344 345 346 347 346 346 345 346 346 345 344 343 344 343 342 341 340 339 338 338 339 339 339 340 341 340 338 338 337 337 336 335 335 334 332 330 326 322 322 323 324 325 327 335 335 335 334 333 335 336 335 333 334 336
340 340 340 339 339 343 344 346 345 343 343 342 340 339 339 340 340 339 339 341 341 341 340 339 341 341 343 343 343 345 346 347 346 346 346 346 345 344 343 342 342 342 341 342 342 341 340 340 339 339 339 339 339 339 339 340 340 338 336 336 336 335 335 334 333 332 330 323 322 322 323 323 323 326 334 334 336 334 334 335 334 334 333 333 333
338 339 339 338 339 343 344 344 344 343 343 342 341 340 339 339 339 339 339 339 339 339 339 339 340 341 343 343 345 346 346 346 346 346 345 345 344 343 343 342 342 341 341 341 341 340 339 339 338 338 339 339 338 339 339 339 339 338 336 335 335 335 334 333 331 330 326 323 323 322 322 322 323 324 333 334 334 335 333 333 334 334 333 333 332
338 338 338 337 338 341 342 343 344 342 342 343 342 340 339 339 339 339 338 337 337 339 339 338 339 341 341 342 343 345 346 345 345 345 344 344 342 341 341 342 341 341 340 341 341 339 339 338 337 337 338 338 338 338 338 338 338 338 337 335 333 334 333 332 331 329 322 322 322 323 328 332 324 328 334 336 336 335 333 333 335 333 332 332 331
337 337 336 337 338 340 343 344 344 344 343 345 342 341 340 339 339 336 337 340 341 341 340 339 339 340 340 341 342 345 345 344 344 344 344 344 343 343 342 341 341 341 341 340 340 339 338 338 337 337 337 337 337 337 337 337 338 337 337 336 335 334 332 330 327 322 322 323 325 324 328 333 323 325 332 334 335 335 335 334 334 333 333 333 332
336 336 335 336 343 340 343 343 343 344 343 344 343 341 340 339 339 336 340 341 341 342 342 341 341 340 341 342 342 343 344 344 344 344 344 343 342 341 340 340 340 340 340 339 339 338 337 337 337 337 336 336 336 336 336 336 337 337 337 335 334 333 331 329 323 322 322 324 325 326 325 326 324 329 333 333 334 334 333 332 333 333 334 333 333
335 335 335 336 337 339 341 342 343 344 344 343 343 342 340 339 338 338 339 342 342 342 342 341 342 342 342 342 342 343 343 343 343 343 342 342 341 341 341 340 340 340 340 339 339 337 337 337 336 336 335 335 335 335 335 336 336 337 337 336 334 332 331 328 321 322 322 322 324 324 325 327 327 334 333 335 333 332 332 333 333 332 333 332 332
334 334 334 335 336 343 338 339 341 343 343 343 342 342 340 339 339 340 342 342 342 342 342 342 342 342 341 342 343 343 343 343 342 342 341 341 341 340 340 340 339 340 338 338 338 337 336 336 336 335 334 334 334 335 335 335 335 335 335 334 333 332 329 328 326 320 321 321 323 325 325 330 332 334 333 334 334 333 333 333 332 333 332 331 331
334 333 333 334 335 336 340 337 340 341 342 343 342 342 341 340 340 342 342 341 342 342 342 342 341 341 340 341 343 343 342 342 341 341 341 340 340 340 341 340 340 339 339 339 338 337 336 336 335 334 334 333 334 334 334 334 334 334 334 334 332 329 326 321 322 319 320 321 320 324 324 326 336 337 335 334 333 333 333 333 332 332 332 331 332
334 333 333 331 332 332 335 339 336 337 339 341 341 341 342 342 342 342 342 342 342 341 341 341 340 339 339 341 342 342 341 341 341 341 341 341 340 340 340 339 340 339 338 338 337 336 335 336 335 334 333 333 333 334 334 333 333 333 334 333 331 327 325 322 319 318 317 318 319 323 325 327 336 336 335 334 333 332 331 332 332 332 332 333 333
333 333 333 331 330 330 332 332 333 334 334 335 337 338 340 342 342 343 343 343 342 341 340 340 340 339 341 342 342 342 342 341 341 341 341 340 340 340 339 338 338 338 338 337 337 336 335 335 334 334 333 333 333 333 333 333 332 334 334 332 330 326 324 322 319 317 318 320 321 322 324 327 335 336 336 335 333 332 334 336 336 335 335 335 335
332 333 333 332 331 331 333 332 329 330 329 332 333 336 339 340 340 340 341 341 341 341 342 342 342 341 341 340 340 341 342 341 341 341 340 339 338 337 339 338 337 337 337 337 336 336 335 334 334 333 333 333 333 333 333 332 334 333 332 330 328 325 324 322 317 316 318 323 318 323 322 335 335 335 335 335 336 335 336 335 335 334 334 334 334
330 332 332 332 332 333 334 333 328 327 328 329 330 335 334 337 337 338 338 339 340 340 340 338 338 338 338 337 336 335 334 335 336 337 337 336 336 334 336 338 337 337 336 336 336 335 335 334 333 333 332 332 332 332 332 333 332 332 330 328 323 321 321 320 316 316 317 317 318 318 322 334 332 335 335 335 335 335 335 334 334 334 334 334 335
328 330 332 331 332 332 334 334 329 328 328 330 332 332 333 332 334 335 336 337 337 337 335 334 332 332 332 331 329 328 328 328 329 331 333 336 334 330 333 336 336 336 335 336 336 335 335 334 333 333 333 333 333 332 333 333 333 331 326 323 319 319 318 317 316 316 316 318 319 318 329 333 333 333 334 335 335 335 334 335 335 334 334 335 334
327 329 330 330 331 331 334 333 330 328 328 329 330 332 332 330 330 331 332 333 334 333 332 327 325 325 325 324 325 325 324 325 325 326 325 326 325 327 331 335 335 335 335 334 334 334 333 333 333 332 332 332 330 329 327 328 329 328 324 319 316 316 316 318 320 320 316 317 320 318 331 333 332 334 333 335 334 335 335 334 334 335 333 334 334
323 326 328 330 331 331 332 333 331 329 328 329 330 331 330 331 329 328 330 330 329 328 326 326 329 324 322 324 324 325 324 323 324 329 323 323 325 325 329 334 335 334 335 334 333 333 332 332 331 331 331 331 325 313 315 320 322 324 322 319 316 314 315 322 321 317 316 315 317 322 333 331 332 334 333 333 334 334 333 333 334 335 334 335 334
321 323 325 328 331 331 331 332 332 330 328 327 329 329 329 328 328 327 328 327 329 327 326 326 323 323 323 323 323 324 323 323 323 325 324 320 324 324 329 331 333 332 334 333 333 332 332 331 331 331 331 326 314 313 314 314 315 319 318 316 315 314 315 319 317 317 316 315 315 327 331 331 331 332 333 333 334 333 333 333 333 334 334 334 334
322 323 324 327 330 330 330 331 332 331 328 327 327 328 328 328 327 327 326 326 326 325 325 324 323 323 323 322 323 322 323 323 327 328 326 324 324 322 324 325 328 329 330 330 331 331 331 331 330 328 323 320 317 316 314 314 317 317 318 316 315 316 319 316 316 318 318 318 315 327 330 331 331 332 333 332 333 333 333 332 333 334 333 333 334
321 323 323 325 329 330 330 329 332 332 329 328 327 327 327 327 327 326 326 325 325 324 325 324 324 323 322 323 321 320 322 323 323 322 321 321 321 321 322 323 325 326 324 324 322 321 320 317 317 318 315 317 316 316 314 315 315 315 317 317 316 314 316 319 317 315 314 315 315 325 328 330 331 332 333 332 333 333 332 332 333 333 333 333 333
321 322 322 324 327 330 329 329 330 332 330 328 327 327 327 327 326 326 326 325 325 324 324 324 324 324 322 322 322 322 321 322 321 320 320 320 320 320 322 322 322 322 322 322 320 320 319 317 317 315 314 312 314 315 314 314 316 314 314 314 316 316 316 317 317 317 317 314 314 323 325 329 330 331 331 332 332 332 332 331 334 332 333 332 332
320 322 324 324 326 329 329 328 328 331 331 329 328 326 327 327 327 326 325 325 325 325 324 324 324 324 323 322 322 320 321 321 321 320 320 319 320 320 321 320 320 320 320 321 320 320 319 317 316 316 314 312 314 315 314 314 314 315 314 316 316 319 318 317 315 318 316 313 316 322 327 329 329 330 330 331 331 332 332 332 332 333 332 332 330
319 321 323 324 324 326 328 326 327 330 331 330 328 326 327 326 326 325 326 324 325 325 325 325 325 324 323 323 323 322 322 321 321 320 320 319 320 320 319 319 319 320 321 320 319 318 318 315 315 315 315 314 315 315 316 316 315 313 316 317 316 316 317 316 313 313 314 314 314 319 323 327 328 329 329 329 331 331 330 329 328 331 330 330 328
319 320 323 323 324 325 327 325 326 329 332 331 328 327 327 326 325 324 325 324 325 325 325 325 325 325 325 324 323 323 322 323 322 321 320 321 320 319 319 320 320 320 319 319 319 319 318 316 316 318 317 316 314 316 316 317 318 315 316 318 319 317 314 315 313 312 312 314 313 316 322 324 327 328 328 330 329 328 328 327 328 328 330 327 326
321 321 322 322 324 325 325 325 325 328 331 331 329 327 327 326 325 324 325 322 324 325 324 324 325 325 325 325 324 324 323 323 322 321 321 321 320 319 319 320 321 321 320 319 319 319 320 317 316 317 317 315 315 318 316 317 318 317 316 319 322 322 318 313 312 311 312 314 312 314 319 322 326 329 327 326 325 325 325 326 326 326 327 326 330
322 321 322 323 323 325 325 325 325 326 329 330 329 328 327 326 325 325 324 322 324 324 323 324 325 325 325 325 324 324 324 323 322 321 321 321 320 320 320 320 320 320 321 320 319 319 320 318 317 317 316 315 316 316 315 318 316 316 314 315 319 317 314 311 311 311 314 314 313 312 315 320 323 326 325 324 323 323 324 324 326 325 326 331 330
322 321 322 323 323 324 325 325 325 325 326 329 327 327 326 326 325 325 325 323 323 324 323 323 323 325 325 325 325 324 323 324 323 322 321 321 321 321 320 319 320 321 321 321 319 319 319 318 317 316 316 316 317 314 313 314 314 315 311 314 317 316 315 312 314 313 314 314 313 312 312 315 318 321 323 323 322 322 323 324 326 328 330 330 329
324 323 322 322 322 324 325 324 325 323 325 327 326 326 326 325 323 324 324 323 323 323 322 322 323 324 324 324 324 324 323 324 323 322 320 321 321 321 320 320 321 321 320 321 320 319 318 316 316 316 315 315 314 316 312 311 312 315 313 315 317 319 319 316 315 313 315 316 315 313 313 312 311 315 317 320 324 323 323 324 325 328 326 326 325
324 324 323 321 323 324 325 325 325 324 324 326 325 324 324 324 323 323 323 323 322 323 322 322 322 323 324 324 324 324 323 323 323 322 322 322 322 321 321 321 321 320 320 320 319 318 318 316 318 315 317 317 317 317 313 313 313 312 314 316 315 318 319 318 316 317 319 317 315 314 312 310 310 309 310 317 320 322 323 324 324 325 324 324 324
323 323 323 322 322 323 324 325 324 325 323 324 324 324 323 324 323 323 323 323 322 322 323 323 323 323 324 324 324 324 324 324 323 323 322 322 322 321 321 322 322 320 319 319 320 319 317 318 316 317 317 315 315 316 315 315 314 315 315 314 316 318 319 318 316 317 318 317 315 313 311 309 308 307 308 308 313 316 320 324 323 323 323 322 323
324 324 324 323 322 322 323 324 324 324 324 324 324 324 323 323 323 322 323 322 322 322 322 323 323 323 323 324 324 324 324 324 323 323 322 321 322 322 322 322 321 320 319 318 319 319 318 318 317 319 316 316 315 316 311 315 315 315 314 312 314 313 314 312 314 315 316 316 314 312 310 308 308 306 307 307 308 309 314 320 323 321 320 321 322
325 324 324 324 322 322 321 323 323 324 324 324 324 324 323 323 323 322 323 323 322 322 323 323 323 323 322 323 324 324 324 325 324 323 323 322 322 322 322 322 322 320 319 318 319 319 319 319 317 317 318 318 315 315 315 314 314 314 315 312 313 313 314 315 315 316 315 315 314 313 311 308 306 307 306 306 306 307 309 312 315 316 318 320 322
326 325 325 325 324 322 322 322 323 324 325 324 324 324 323 323 323 322 322 323 323 323 323 322 323 323 322 322 323 324 324 325 324 323 323 323 323 322 322 322 321 320 320 319 319 319 318 319 318 317 317 317 315 315 315 314 313 314 313 312 313 311 314 313 314 311 313 313 314 313 312 309 307 306 305 306 306 305 303 307 309 310 311 317 319
327 325 325 326 325 323 322 321 322 323 324 324 323 323 322 322 322 322 322 322 323 323 323 322 322 323 323 323 322 324 323 324 325 323 323 323 322 322 322 321 321 320 320 319 319 318 318 318 318 318 316 317 318 316 316 315 313 313 313 315 314 315 315 312 311 312 313 313 313 312 311 308 307 305 304 304 304 303 300 298 298 298 302 311 315
327 327 324 325 325 324 322 321 321 322 323 323 323 322 321 320 320 319 320 321 322 322 323 323 323 323 323 323 322 323 324 324 325 325 323 322 322 322 321 321 321 321 320 319 318 318 318 317 317 318 317 315 315 316 315 313 309 309 309 310 309 311 313 312 310 312 313 312 311 310 310 308 307 305 303 303 303 301 298 297 296 296 297 304 307
326 326 325 324 325 326 323 321 321 321 322 321 321 321 320 320 320 321 321 322 322 323 323 323 323 323 323 323 323 323 323 323 323 324 323 321 322 322 321 320 321 321 321 321 321 320 320 320 319 316 316 315 315 314 314 312 311 310 309 309 311 307 311 311 312 311 311 312 310 310 308 307 306 304 303 301 301 299 297 298 296 294 293 293 297
324 325 325 325 325 326 325 324 322 321 322 322 321 321 322 322 321 321 322 322 321 321 322 323 323 323 323 323 323 323 323 323 322 324 323 323 322 322 321 321 320 321 321 322 321 318 319 319 318 315 314 316 315 315 315 315 308 310 306 308 307 309 307 308 309 309 311 311 311 310 308 307 305 304 302 300 299 298 298 298 296 293 291 291 291
325 325 326 325 325 325 325 325 324 323 322 322 322 321 322 323 322 321 322 320 321 323 323 322 322 322 322 323 323 323 324 323 323 322 323 323 322 322 321 322 321 320 320 320 320 320 320 319 319 319 315 311 315 314 315 317 311 305 301 305 302 304 308 309 308 309 309 309 310 310 308 306 305 303 302 300 299 299 299 299 296 293 291 291 291
324 324 325 325 325 325 325 326 325 324 323 323 320 322 322 323 323 321 321 322 320 319 320 318 321 321 322 323 323 324 324 324 323 323 323 324 322 322 321 321 320 320 321 320 321 320 320 320 319 318 318 315 313 314 315 316 312 310 308 310 302 300 298 305 307 307 310 309 309 310 307 305 302 301 301 300 299 300 300 299 296 293 291 290 290
323 324 324 325 326 325 326 326 326 325 325 323 322 322 321 319 319 317 316 318 317 318 319 320 321 321 322 322 323 323 324 324 324 323 322 322 323 322 320 320 320 320 320 320 320 321 321 321 321 319 318 318 315 313 313 315 314 317 313 305 304 303 303 299 304 307 306 308 308 308 306 304 301 300 300 300 300 301 300 299 296 291 291 290 290
323 324 325 325 326 326 326 325 326 326 326 325 324 323 322 321 320 319 319 319 320 320 320 321 321 321 322 323 323 323 323 324 324 324 323 321 322 322 321 320 319 319 320 321 321 321 321 321 321 321 319 319 319 315 313 310 315 314 314 313 311 308 303 298 304 303 306 307 307 306 304 303 301 299 299 300 300 300 299 299 296 292 291 290 289
323 324 324 325 325 325 325 326 326 326 326 326 325 323 324 323 322 321 321 320 320 321 323 323 323 324 323 322 323 323 324 324 323 324 324 323 322 323 322 321 320 320 319 320 321 321 322 322 322 321 321 320 318 316 315 314 310 312 312 312 306 301 304 305 303 297 302 308 307 305 303 301 300 300 299 299 300 299 299 298 295 292 291 290 289
323 323 324 324 324 325 325 325 326 325 326 326 325 325 324 324 323 322 322 322 321 321 322 323 322 321 323 323 323 323 324 324 324 324 324 324 322 323 323 322 321 321 319 320 321 322 322 322 321 322 321 320 319 318 316 314 314 314 312 312 310 307 304 300 302 307 302 300 306 305 301 300 299 299 299 299 299 300 298 296 295 293 292 290 289
321 322 323 324 324 325 324 325 325 324 325 325 325 325 324 325 324 324 322 322 323 322 318 318 321 320 322 323 323 324 324 324 325 325 325 325 322 323 323 323 323 322 320 321 321 321 322 321 321 321 321 320 320 320 319 317 315 315 311 311 311 310 308 306 303 302 299 299 302 304 301 298 299 298 298 299 300 299 299 297 295 293 292 290 289
321 321 323 323 324 324 323 323 324 324 324 325 324 324 324 323 324 324 323 323 322 321 318 319 319 319 321 322 323 323 324 324 325 326 326 326 327 325 325 326 326 326 322 323 322 322 322 322 322 322 322 321 321 320 320 320 318 318 316 315 312 311 310 310 308 306 302 303 303 303 302 298 296 297 297 297 298 299 299 297 294 293 291 290 289
318 319 320 321 322 322 322 322 324 325 323 324 324 324 324 324 324 324 323 323 322 321 319 319 318 318 320 321 321 322 323 325 326 327 328 328 328 327 327 327 328 327 325 326 325 325 325 324 324 324 323 323 322 322 319 320 319 318 317 317 315 314 313 312 312 310 309 300 300 299 301 298 299 296 295 296 297 298 298 297 295 293 292 290 289
Wind_Speed
2 4 3 8 10 12 12 13 13 14 13 12 12 12 12 11 12 10 11 11 10 11 12 13 13 14 12 12 12 13 14 13 14 16 15 14 14 16 16 16 17 18 18 19 18 18 18 17 18 18 18 18 18 18 18 18 18 17 17 19 19 18 18 18 19 17 17 20 21 20 19 18 18 19 18 20 19 19 15 17 14 10 6 11 17
6 3 3 6 11 11 13 14 14 13 13 13 12 12 11 11 11 11 12 11 10 11 11 13 15 15 14 13 13 13 13 14 15 15 15 14 15 16 16 16 18 19 19 19 18 17 17 17 18 18 17 17 17 17 17 18 18 17 18 20 18 18 18 18 18 17 16 15 14 15 20 19 19 18 19 19 19 19 14 16 16 8 6 15 17
6 4 3 6 11 11 12 13 14 13 13 13 13 12 12 10 10 11 11 12 12 11 12 14 16 14 14 15 14 14 14 14 15 14 14 15 16 16 17 18 18 18 18 18 17 17 17 17 17 17 17 17 16 16 17 17 17 18 21 19 18 18 18 18 17 16 15 15 14 13 12 20 19 19 20 20 19 18 14 16 16 15 10 18 17
8 4 4 7 10 9 11 13 13 13 13 13 13 13 12 12 12 11 12 11 10 12 12 13 16 15 15 15 15 15 14 14 14 15 14 14 15 16 18 19 19 18 18 17 17 17 17 17 17 17 16 16 16 16 16 16 17 18 20 19 18 18 19 18 16 15 14 14 14 10 5 4 10 18 21 19 19 18 15 17 17 19 20 19 21
8 5 4 5 6 7 11 12 13 13 13 14 13 13 12 12 12 12 12 11 11 11 12 14 14 14 14 14 14 14 13 15 16 15 15 16 16 17 18 18 17 17 17 17 16 16 16 16 16 16 16 15 15 15 16 16 17 18 18 18 18 18 17 16 15 14 12 12 12 8 6 6 6 17 18 18 18 16 15 16 17 17 17 18 19
7 5 5 5 4 6 11 11 13 13 12 12 12 12 13 11 13 12 12 13 12 11 12 13 13 13 13 14 14 14 14 13 15 15 15 16 16 17 18 18 18 17 16 16 16 15 15 15 15 15 15 15 15 15 15 16 17 18 18 17 17 17 16 15 14 13 11 11 9 6 7 6 5 8 18 17 16 14 17 18 18 16 15 17 18
9 5 5 5 4 7 10 12 13 13 13 12 11 10 13 11 11 11 9 12 12 11 11 11 12 14 14 13 13 14 14 13 14 15 16 16 16 16 18 18 17 16 16 16 16 15 15 15 15 15 15 14 15 14 15 15 16 17 18 18 17 16 15 14 13 12 11 6 6 6 6 6 4 4 16 16 16 15 16 17 18 16 16 16 17
7 6 5 4 5 8 11 12 12 13 13 13 11 10 10 12 12 10 11 12 12 12 13 12 12 13 14 13 13 14 14 14 14 15 15 16 15 16 17 16 15 15 15 15 15 14 14 14 14 14 14 14 14 14 14 15 16 16 16 16 16 15 15 14 12 11 10 5 4 5 6 4 4 4 15 16 16 16 15 16 17 17 16 16 13
8 7 6 6 5 10 11 11 13 13 14 13 13 11 10 11 11 10 11 11 11 11 12 11 12 13 13 13 14 14 15 15 15 16 16 16 16 16 16 15 15 15 15 15 15 14 14 14 14 14 14 13 13 13 13 14 16 16 15 15 15 15 14 13 11 9 6 4 4 4 4 3 3 4 13 16 17 16 15 10 12 16 16 13 15
7 6 6 6 6 11 11 12 13 13 13 14 12 12 12 11 11 11 12 10 11 11 11 10 12 13 14 13 13 14 14 15 14 14 15 15 15 14 15 15 14 15 15 15 14 14 14 14 14 13 13 13 13 12 13 13 14 15 14 14 15 15 14 12 10 6 5 4 5 5 4 5 4 4 11 15 16 16 14 8 7 7 9 13 15
7 6 5 6 7 12 12 12 12 12 13 13 12 13 12 12 12 10 11 12 13 11 12 10 9 10 12 13 13 14 14 14 14 13 15 15 15 15 16 15 14 14 14 14 13 13 14 13 13 13 13 13 12 12 12 12 13 14 13 13 13 13 13 10 7 4 4 5 6 5 5 7 3 4 12 13 14 14 10 8 10 12 13 13 13
7 6 5 5 8 11 11 11 12 14 14 15 14 13 12 12 12 11 13 12 12 12 11 11 11 11 12 13 12 13 13 13 14 14 14 15 15 14 14 13 13 14 14 14 13 13 13 13 13 13 13 12 11 11 11 11 12 12 12 13 12 12 10 9 5 5 4 5 5 5 5 5 3 7 13 11 12 12 10 10 12 12 13 11 11
7 6 5 5 6 9 11 11 11 12 13 14 14 13 13 12 11 12 11 12 12 12 12 10 11 12 12 12 12 13 13 14 14 14 14 14 14 14 14 13 13 13 13 13 12 12 12 12 12 12 12 11 10 11 11 11 11 11 12 13 11 10 8 7 4 4 4 4 5 5 6 4 4 9 10 11 10 10 10 10 10 10 11 9 9
7 6 5 5 5 9 10 10 12 12 12 12 13 12 12 12 11 12 12 12 12 12 12 11 12 13 12 12 12 13 13 13 14 14 13 14 14 14 14 13 13 13 13 12 12 12 12 12 12 11 11 10 10 10 10 10 11 10 11 13 12 9 8 6 5 4 4 4 4 5 5 5 4 8 8 9 9 9 9 9 9 9 9 8 7
7 6 5 4 4 5 9 9 9 10 10 11 11 11 12 12 12 12 13 13 13 13 12 12 12 13 12 12 13 13 13 13 13 13 13 13 14 14 14 13 13 13 13 12 11 11 11 11 11 11 10 9 9 9 9 9 9 10 10 10 11 9 7 4 4 3 4 3 3 4 4 3 7 9 8 8 7 7 7 7 7 7 6 6 7
7 5 4 3 3 3 4 6 8 10 10 10 10 10 11 10 11 13 13 13 13 13 13 13 12 12 12 12 11 11 12 13 12 11 10 12 13 13 13 13 12 12 12 11 10 10 10 10 10 9 9 9 8 8 8 9 9 9 8 8 9 9 6 4 4 3 3 3 3 3 4 4 10 7 5 6 6 6 5 5 5 5 7 7 7
6 5 5 3 3 2 2 2 5 9 9 9 9 9 9 8 11 11 12 12 11 12 12 12 11 11 10 10 10 10 10 11 11 11 10 12 12 11 11 11 11 11 11 11 10 10 10 9 9 8 7 7 8 8 8 8 8 7 7 7 8 8 6 5 4 2 3 3 3 3 3 3 6 8 7 6 5 5 8 9 9 9 8 8 8
5 5 5 4 3 3 2 2 3 4 4 5 7 9 9 8 9 9 10 10 9 9 10 11 10 10 9 9 9 9 11 11 9 8 9 9 8 8 8 11 11 11 10 9 9 9 9 8 7 7 6 6 6 6 6 6 6 6 5 7 7 6 5 5 3 2 2 2 2 1 2 3 4 4 5 5 5 6 6 7 6 6 6 5 6
6 6 5 4 4 3 4 4 4 4 4 3 3 7 9 8 8 8 8 9 10 11 11 10 10 9 9 9 10 10 9 9 9 8 8 8 9 9 8 9 10 10 9 9 8 8 8 7 7 6 5 5 5 5 5 6 6 6 5 5 7 6 7 4 2 1 2 2 1 1 1 3 3 2 3 4 4 4 6 7 6 6 6 6 6
7 7 7 5 4 4 3 4 4 4 4 4 5 5 8 9 8 8 9 10 11 11 11 11 10 9 10 10 9 8 8 7 9 7 9 9 8 6 8 7 9 9 8 8 7 7 7 6 5 4 3 3 4 5 6 6 6 6 6 6 6 5 3 4 2 1 1 1 0 0 3 4 5 6 6 4 5 5 6 7 7 7 7 6 6
5 7 7 6 6 5 5 4 4 4 4 4 4 5 6 9 7 8 10 11 11 11 11 11 10 9 8 9 8 5 4 4 5 5 7 4 7 7 8 8 8 8 7 7 6 6 6 5 4 3 2 3 4 5 6 7 7 7 8 7 6 4 1 2 2 1 2 1 1 0 3 3 6 5 5 6 6 6 7 7 7 7 7 7 7
7 6 7 8 7 6 7 6 5 5 4 4 4 4 4 6 5 4 5 8 9 9 8 6 6 5 8 6 5 5 5 4 4 5 5 4 4 8 7 7 7 6 6 6 6 5 4 4 2 1 2 3 4 2 3 4 5 6 6 7 5 2 1 3 3 2 1 1 1 2 1 4 5 6 5 5 5 6 6 6 7 7 7 7 7
7 7 7 9 8 7 7 7 7 6 5 4 4 4 4 4 4 4 5 7 7 7 6 6 5 5 4 4 4 5 4 4 4 5 5 5 4 6 7 8 8 7 6 5 4 4 3 2 1 0 1 3 2 2 2 3 4 6 6 4 4 2 0 2 3 3 3 2 1 3 2 2 4 5 5 4 5 5 5 6 7 6 6 6 7
10 9 8 7 9 8 8 8 8 7 6 5 5 5 4 4 5 4 5 5 5 5 5 5 5 5 5 4 5 4 4 5 6 9 8 4 4 6 6 6 6 6 7 4 3 2 0 1 1 2 2 1 1 2 2 3 4 3 4 3 3 3 1 3 4 4 3 2 1 4 2 3 4 4 5 3 4 5 5 5 6 5 5 6 8
7 6 6 8 9 9 8 8 8 8 7 6 6 6 5 5 5 5 5 5 5 5 5 5 5 5 5 4 3 3 4 5 5 4 4 4 3 3 3 3 3 3 4 3 1 1 1 1 1 1 1 2 2 4 2 3 3 2 3 3 3 2 1 3 2 2 3 2 2 2 2 3 4 3 4 3 3 4 4 4 5 5 5 8 7
6 8 9 9 10 9 9 8 8 8 9 7 7 7 7 6 5 6 5 5 6 5 5 5 5 5 5 5 4 4 4 5 4 5 5 5 4 4 4 3 3 4 3 3 2 2 2 2 2 3 4 2 3 4 3 3 3 2 2 2 1 2 1 1 3 4 3 2 2 1 0 2 2 2 3 3 2 3 3 4 5 4 6 7 7
9 10 9 8 10 9 9 9 9 9 10 8 7 7 7 6 6 6 6 6 5 6 5 5 6 5 5 5 6 5 5 5 5 5 5 5 5 5 5 4 4 4 4 4 3 2 2 3 3 4 3 2 3 4 4 3 3 3 3 2 2 2 1 1 3 4 4 3 1 2 1 2 2 2 2 1 2 3 3 4 4 5 7 7 6
6 7 8 8 9 11 10 9 9 9 9 9 8 7 7 7 7 7 6 7 7 6 6 6 6 6 5 6 6 5 6 5 5 5 6 5 6 5 5 4 4 5 4 4 4 4 4 4 4 4 4 3 4 4 4 4 4 3 2 2 1 3 1 2 2 1 3 3 2 1 2 0 3 2 1 2 3 4 3 2 2 4 6 5 4
8 8 8 8 9 10 11 11 9 10 9 9 9 8 7 7 7 7 7 7 7 7 7 6 6 6 5 6 6 6 5 6 6 6 5 6 5 5 5 5 5 5 4 5 4 5 5 5 5 5 4 5 4 4 4 4 3 3 3 3 3 3 2 2 3 1 2 3 3 1 2 1 2 3 3 4 4 4 3 2 1 2 4 4 3
12 10 9 9 8 9 11 12 10 10 10 9 8 8 8 8 8 8 7 7 7 7 6 6 6 6 6 6 7 6 7 7 7 6 6 7 5 5 5 5 6 5 5 5 5 5 5 5 5 5 5 5 4 6 3 4 4 4 4 4 4 5 5 2 2 2 3 4 3 2 3 2 1 5 6 4 4 3 1 0 2 3 4 6 10
10 11 10 9 9 10 11 11 10 9 8 10 9 9 8 8 8 7 7 7 7 7 7 7 7 6 6 7 6 7 7 7 7 6 6 6 6 5 6 5 5 6 5 6 5 6 6 6 6 6 6 5 6 5 5 5 5 4 3 4 5 4 3 2 2 3 4 4 3 3 2 2 5 5 5 4 3 2 1 2 4 6 8 11 10
12 13 11 9 9 12 12 11 10 10 10 10 9 9 9 9 8 7 8 7 7 7 7 7 7 7 6 6 7 6 7 7 7 7 7 6 6 6 6 5 7 6 6 6 6 6 6 6 5 5 5 4 5 4 3 4 4 4 2 4 5 4 4 3 4 4 4 4 4 3 3 2 4 5 4 4 3 2 0 2 5 9 9 10 10
10 11 12 10 12 12 12 12 11 10 11 11 10 9 8 8 8 8 8 7 7 7 7 7 7 7 6 6 7 7 6 7 7 7 7 7 6 6 6 6 7 7 6 7 6 6 6 5 6 4 4 4 4 4 3 3 3 4 2 4 3 4 5 4 4 5 5 5 5 4 3 3 3 5 5 4 2 2 1 3 6 10 9 10 10
10 8 10 12 11 8 9 9 11 12 12 10 9 8 8 7 7 7 7 7 7 7 7 7 7 7 6 6 6 7 7 7 7 7 6 6 6 7 7 7 7 6 7 6 7 6 7 6 6 4 5 6 6 6 4 4 5 3 3 4 4 6 5 5 5 5 5 6 5 5 5 3 3 3 3 4 2 1 2 4 4 8 8 9 9
9 9 12 13 12 10 9 9 11 12 11 11 10 9 7 7 7 7 7 8 7 8 7 7 7 7 7 7 7 7 7 7 7 7 7 6 7 7 7 7 6 5 6 6 7 6 6 7 5 6 6 6 5 7 5 5 4 6 5 4 6 6 5 6 6 5 6 6 5 5 5 5 4 3 3 3 3 3 6 4 8 8 8 8 8
13 12 11 11 12 11 11 10 11 12 12 12 10 9 9 8 7 6 6 7 7 7 7 7 7 7 7 8 8 8 8 7 7 7 7 6 7 7 8 7 6 6 6 5 5 6 6 6 6 6 6 7 6 6 3 5 5 6 6 4 6 4 6 4 4 4 5 6 5 5 5 4 4 4 3 3 3 4 8 6 7 7 7 7 8
13 12 12 11 12 12 12 13 13 13 12 12 11 8 8 7 7 7 8 7 8 8 7 6 6 6 6 7 8 9 8 8 7 7 7 7 7 7 7 8 6 6 6 5 6 6 6 6 6 6 6 7 6 5 5 5 5 6 6 5 5 5 5 6 5 5 5 6 6 5 5 4 3 4 3 4 3 4 6 9 10 10 8 5 8
12 13 13 14 15 13 13 13 12 13 12 12 11 10 8 8 7 7 6 8 8 7 7 6 7 7 6 7 7 8 8 8 8 8 8 8 8 8 7 7 6 6 6 6 7 6 5 6 7 6 6 6 6 6 7 5 4 5 5 5 5 5 5 5 5 3 6 5 5 7 7 5 5 4 4 4 3 5 4 7 10 9 8 6 6
11 13 12 12 11 11 11 12 11 11 11 10 10 9 7 6 6 7 7 7 7 7 7 7 7 7 7 7 7 8 8 9 9 9 9 8 8 8 8 7 7 7 7 7 7 7 6 6 7 8 5 6 7 6 7 6 5 5 5 6 4 5 5 4 3 5 6 7 7 6 6 6 5 4 5 4 4 4 4 4 5 4 5 7 7
12 11 12 11 12 11 10 10 11 11 9 9 8 8 7 8 8 6 7 8 8 8 8 8 8 8 9 8 7 7 8 9 9 9 9 8 8 8 8 7 8 8 8 8 8 8 9 9 9 9 8 6 5 5 5 4 3 3 4 5 3 3 4 4 4 6 6 6 6 6 7 6 6 5 5 5 4 4 5 4 4 5 3 5 7
12 12 12 13 14 14 12 14 11 10 10 10 9 10 10 8 8 10 11 9 10 9 9 9 9 9 9 9 8 8 8 8 9 9 9 9 9 7 8 8 8 8 9 10 10 10 10 10 9 7 8 7 6 5 5 3 3 3 3 4 5 3 3 3 4 5 6 6 5 6 5 6 5 6 5 5 4 5 5 5 5 4 3 3 4
13 14 15 17 15 12 13 13 10 12 13 13 11 11 11 11 11 12 10 9 9 9 10 9 9 8 8 9 9 9 10 9 9 9 10 10 10 9 9 9 9 9 10 9 9 9 9 8 6 5 5 8 7 7 6 5 2 5 4 3 4 5 3 3 4 4 4 5 6 6 6 7 7 6 5 5 5 5 5 5 4 4 3 3 3
16 16 16 14 12 13 13 12 12 12 12 12 11 12 11 10 11 8 10 7 6 7 7 6 6 8 8 9 10 10 11 11 10 10 10 10 10 10 10 10 10 9 8 9 9 10 9 11 10 10 6 4 6 4 6 8 6 2 1 2 4 2 4 2 2 3 3 4 5 6 6 6 7 7 7 6 6 5 5 4 4 4 3 3 3
12 12 13 15 13 13 13 13 13 12 11 13 13 12 11 9 8 6 6 8 6 5 6 6 7 8 11 11 10 11 11 11 10 11 10 10 10 11 9 9 9 9 10 10 10 11 10 10 10 10 8 7 5 8 7 9 6 7 2 6 2 1 4 6 5 3 4 4 5 6 5 6 5 4 5 7 6 5 5 5 5 4 4 3 3
13 14 14 14 12 16 16 14 12 13 12 12 13 10 7 6 5 3 3 3 0 5 6 8 10 11 10 10 14 10 10 11 11 11 11 11 10 10 9 9 9 8 8 9 10 11 11 11 11 10 11 11 9 5 5 7 8 8 6 4 1 1 5 2 2 5 2 3 3 3 5 5 6 6 6 5 5 6 6 5 4 4 4 4 3
14 14 14 15 14 13 13 12 11 11 13 13 12 10 10 10 9 9 8 8 10 9 12 15 13 12 14 10 7 10 11 10 10 10 11 10 10 10 10 9 9 9 9 10 10 8 10 11 11 11 12 11 10 7 6 4 8 9 8 6 5 6 3 2 2 4 0 1 2 3 4 5 6 7 5 5 6 6 5 6 5 5 4 4 4
15 13 12 13 13 12 12 13 13 12 12 11 12 10 10 10 13 14 12 12 12 12 11 8 9 9 7 8 9 8 10 11 11 11 11 11 11 10 11 11 10 10 9 9 10 11 10 11 9 10 11 10 9 9 10 7 3 5 5 6 2 1 6 6 5 1 1 2 1 3 3 3 4 6 6 6 6 6 5 5 6 6 5 4 4
14 12 12 12 14 14 13 14 12 11 10 10 12 13 13 12 12 13 12 13 14 14 10 9 7 6 8 10 8 9 9 10 11 10 10 10 10 10 10 10 10 10 9 10 11 9 8 7 9 10 9 9 11 11 9 6 9 7 7 8 7 2 1 1 4 8 5 3 4 0 1 2 1 3 5 7 7 8 7 6 6 6 5 5 5
13 13 13 13 14 14 14 12 12 11 10 12 13 14 13 13 13 12 13 13 12 11 5 5 8 6 9 8 9 9 8 9 10 9 10 10 10 10 9 9 9 9 7 8 8 8 10 9 8 9 10 9 9 9 8 8 9 9 6 7 6 7 4 2 1 2 4 4 4 7 4 2 1 4 5 6 6 6 8 8 7 7 6 6 6
13 13 13 12 12 11 12 12 13 11 11 13 14 14 14 12 12 13 16 14 10 8 6 7 7 7 10 10 8 8 8 8 8 9 9 10 10 9 9 10 10 9 8 9 9 10 9 9 9 9 9 10 8 8 11 9 9 9 9 8 8 6 5 4 2 3 1 2 5 6 6 7 7 8 6 7 8 7 6 6 7 7 7 6 6
9 9 10 10 9 10 12 13 15 13 12 13 14 15 14 13 14 15 16 15 12 10 9 10 7 7 10 9 9 8 7 9 8 9 10 10 10 9 10 10 9 9 9 9 10 11 10 10 9 9 10 12 10 10 10 10 8 8 9 8 9 10 11 10 10 7 7 4 2 3 5 8 11 6 7 6 6 6 6 6 8 7 7 7 6
Wind_Direction
206 164 169 151 147 141 132 123 116 114 111 108 103 100 98 101 104 105 102 101 107 104 103 101 104 107 103 93 94 98 100 101 100 98 95 95 95 96 91 91 89 84 79 80 78 78 77 76 74 73 73 75 75 72 67 66 69 72 78 79 76 77 76 73 72 64 64 74 79 76 73 73 70 75 76 71 69 69 72 70 68 64 56 62 66
165 175 151 143 146 147 131 124 118 116 112 108 105 102 100 102 109 106 98 104 110 115 110 98 96 89 91 99 100 98 97 98 100 100 96 97 103 102 98 92 84 80 79 77 78 78 78 76 74 73 74 75 73 69 63 60 63 73 84 85 79 77 77 74 71 68 64 58 52 54 72 73 74 73 74 73 69 67 67 71 73 78 77 70 61
133 148 161 145 145 139 131 125 122 118 114 113 109 104 105 102 100 107 114 112 117 123 124 106 96 99 106 106 103 104 104 98 96 96 96 90 86 90 93 88 85 83 81 80 79 79 78 76 75 74 74 75 71 65 60 58 60 77 89 87 80 78 77 75 70 65 61 55 51 46 38 74 74 75 72 73 72 70 69 69 69 58 66 74 70
134 152 141 142 142 143 125 125 124 121 119 117 114 114 113 114 114 109 100 100 102 104 106 109 107 111 109 106 106 103 104 107 106 103 104 104 98 98 94 90 86 85 82 82 80 79 79 78 75 75 75 74 68 62 58 58 66 81 91 88 82 81 80 77 71 64 55 47 47 42 41 33 68 70 73 72 72 68 63 61 59 54 54 62 66
136 141 136 135 144 139 125 125 127 127 128 125 120 120 118 117 113 110 113 112 110 113 117 112 112 111 112 111 110 109 108 108 106 104 103 103 102 102 99 94 92 89 86 83 82 81 80 80 78 75 74 70 66 61 58 60 70 81 90 91 87 84 83 80 75 63 51 46 41 44 36 39 53 63 66 70 66 59 59 64 62 55 55 57 62
136 140 137 138 147 129 125 128 128 131 131 124 123 124 121 122 123 119 119 124 121 115 108 111 116 115 108 103 106 109 108 105 105 107 107 112 115 107 101 99 96 93 90 87 86 84 82 81 80 78 75 72 67 62 60 64 75 84 89 91 89 85 81 77 72 66 53 44 39 40 40 41 45 62 65 66 64 59 62 61 60 57 62 63 56
137 138 139 140 134 133 133 131 128 130 129 125 124 121 124 130 120 112 115 116 116 117 117 118 118 114 115 115 115 113 115 112 109 105 101 96 96 100 98 94 93 90 89 88 86 85 83 81 80 79 78 75 71 67 65 69 76 85 88 89 89 87 82 77 74 72 69 55 48 42 44 46 49 71 71 68 63 61 64 63 62 62 64 53 53
132 136 139 139 137 141 140 137 134 132 129 125 124 121 124 121 117 124 123 119 121 121 119 128 124 116 111 112 118 116 115 115 112 110 106 105 104 97 96 96 94 96 95 91 88 86 84 82 81 79 79 78 74 71 70 74 78 84 89 90 89 86 81 76 70 68 69 67 63 55 51 46 45 61 69 67 65 63 62 65 66 63 65 66 60
139 140 137 142 144 145 139 138 141 140 136 135 136 136 129 120 122 126 125 128 127 126 125 128 122 118 120 121 114 117 120 115 113 112 111 107 102 99 100 100 101 99 98 94 90 87 85 84 82 81 81 80 76 72 72 75 79 84 88 88 88 85 83 78 71 61 54 51 45 49 50 26 6 43 69 66 66 68 67 65 67 67 60 57 60
142 139 142 142 149 143 143 146 142 139 140 144 142 139 134 129 127 130 132 135 128 125 122 127 132 129 121 119 112 110 114 116 115 114 111 108 108 106 105 105 107 106 102 96 91 89 88 86 84 85 85 82 77 73 71 72 74 79 89 94 95 92 87 79 69 58 56 45 37 23 26 48 35 68 74 67 69 71 68 64 85 98 84 66 62
144 145 143 144 150 149 150 148 144 142 145 147 146 139 137 135 132 135 130 127 124 124 131 136 131 119 121 123 120 114 116 118 118 116 113 110 108 106 105 106 106 104 99 93 92 92 92 90 88 87 88 84 79 74 71 69 68 72 78 85 92 94 91 82 67 60 50 45 39 25 7 22 48 52 69 71 70 73 77 65 60 64 59 57 63
147 149 150 149 151 152 153 155 148 145 148 151 147 142 139 141 141 144 130 129 130 130 131 132 129 124 119 120 123 116 118 119 119 118 114 112 109 107 106 103 103 99 96 96 95 95 94 92 91 89 88 85 81 78 74 69 66 68 74 81 91 93 90 81 74 63 50 45 38 27 14 357 354 68 73 74 72 68 70 65 63 59 59 55 55
151 153 155 156 150 158 158 159 149 148 150 153 150 144 144 147 146 146 138 132 135 134 129 130 132 131 129 125 126 124 122 122 123 120 117 113 113 112 111 111 109 105 102 99 98 96 94 92 89 88 87 85 82 79 75 71 68 67 68 70 79 91 87 84 82 69 56 48 38 23 17 359 322 70 70 70 74 72 69 64 64 62 66 55 50
154 155 159 154 156 158 160 158 151 155 154 153 154 151 149 150 153 144 142 143 139 137 134 140 139 138 137 133 132 130 127 127 126 122 119 119 116 116 116 118 114 111 107 107 104 100 97 93 90 87 83 80 80 76 72 70 68 65 64 65 61 63 74 76 69 66 57 45 36 34 22 4 348 64 74 73 73 72 74 69 65 57 57 55 55
155 159 156 152 159 154 159 159 158 156 153 155 155 157 156 157 155 149 150 147 142 141 143 145 145 144 145 136 137 138 134 132 129 124 124 124 122 120 119 119 118 112 112 108 104 102 99 95 91 87 84 82 79 76 72 69 66 58 53 55 60 57 72 86 80 72 60 44 27 35 24 351 32 35 43 68 76 65 68 67 68 62 53 45 54
151 152 145 140 136 149 151 159 152 152 153 157 160 161 161 163 149 154 152 149 148 149 147 148 146 143 148 130 126 134 136 134 128 123 118 124 124 122 122 123 121 120 116 113 112 108 105 100 96 90 86 84 82 76 72 65 57 49 41 46 60 59 71 92 95 90 88 70 36 34 18 1 29 27 32 70 76 67 71 71 63 54 34 28 22
146 143 138 134 125 115 120 125 139 140 146 154 165 168 160 151 149 152 148 152 155 152 152 150 143 133 120 111 104 108 123 125 115 117 123 127 126 122 125 126 126 124 120 118 114 109 103 101 97 91 85 79 77 73 65 58 50 36 31 29 46 58 81 98 84 80 93 95 80 40 3 21 32 31 30 37 58 65 42 38 28 26 17 12 7
145 146 147 144 136 127 107 91 119 121 131 147 153 152 146 145 144 140 145 151 143 126 114 113 111 109 108 104 101 98 107 110 108 111 121 117 111 118 120 124 123 119 118 115 112 107 104 100 98 92 84 74 68 64 54 49 39 32 27 27 38 42 80 102 107 117 94 68 69 65 360 351 63 41 35 37 31 34 45 34 25 18 19 9 11
148 150 151 150 159 154 153 152 149 136 137 140 144 150 148 147 146 144 141 139 122 120 126 120 123 120 116 109 105 104 101 104 109 109 108 112 110 108 115 121 125 119 121 120 113 109 106 101 98 96 86 75 64 51 39 29 21 19 16 23 43 51 82 84 84 88 106 95 22 16 322 346 356 110 62 40 30 26 52 32 24 17 24 25 9
161 158 161 170 167 164 170 169 164 156 155 155 154 155 153 150 150 143 141 134 131 132 131 131 128 125 121 116 111 106 101 102 107 111 117 114 112 117 117 126 132 128 125 125 121 114 113 111 107 104 93 71 47 30 11 6 1 353 359 13 27 44 80 127 143 158 106 136 46 312 333 3 357 352 13 31 35 21 26 28 26 18 26 31 36
166 171 166 175 175 174 179 178 177 166 161 160 161 159 165 157 153 146 142 141 139 139 137 135 131 130 126 125 117 111 112 107 103 111 108 116 125 126 125 129 137 136 134 131 127 124 122 121 118 102 79 48 29 17 11 3 355 351 347 354 8 62 15 136 144 227 153 230 166 257 297 350 354 357 0 3 17 26 26 4 27 18 31 35 43
175 179 184 176 179 185 182 183 180 174 166 161 163 163 165 158 151 149 146 146 143 138 138 142 143 140 137 134 130 131 126 122 121 116 114 108 118 120 122 123 121 118 133 137 132 130 130 131 125 111 50 36 18 16 4 345 339 337 330 333 343 74 315 164 163 204 201 199 213 256 19 12 357 349 347 348 4 19 15 12 22 27 34 40 55
179 179 193 186 185 185 186 186 181 176 169 165 165 165 165 159 156 156 152 152 152 147 152 149 149 151 154 150 145 143 138 135 133 131 124 112 117 122 121 126 132 138 141 137 135 140 147 149 149 233 38 24 5 342 340 330 316 315 323 325 318 334 355 175 175 186 198 196 250 231 275 8 351 343 326 341 357 2 10 13 22 36 47 57 60
179 182 183 193 186 188 189 188 185 174 168 172 166 169 170 167 165 162 158 158 158 159 157 159 158 161 162 160 155 153 147 142 142 129 122 118 97 84 94 107 124 141 134 122 114 87 360 350 4 2 354 336 328 302 307 303 287 289 295 296 291 304 167 194 182 200 199 208 228 276 348 2 351 336 319 334 355 8 7 8 28 58 70 68 75
175 173 179 194 192 187 187 191 187 177 174 173 171 178 176 171 175 170 167 164 167 168 169 166 169 171 168 161 161 157 151 147 145 143 138 139 142 145 142 148 142 134 131 145 122 262 308 292 330 311 252 257 271 268 272 269 265 268 256 268 266 303 260 194 221 184 203 220 232 257 6 350 345 340 320 330 4 13 5 354 48 81 84 78 84
164 184 190 189 193 190 186 189 188 184 181 176 179 179 174 178 180 179 171 176 171 176 179 178 177 178 170 166 158 156 155 157 162 162 159 159 160 169 176 171 169 170 175 171 196 210 249 242 238 260 250 215 235 258 260 235 271 274 253 254 208 262 237 138 187 190 195 201 238 229 20 319 344 340 321 353 16 30 26 24 66 84 94 93 90
189 195 184 188 188 192 188 185 188 187 186 179 179 177 185 182 178 181 174 185 178 177 188 186 187 183 175 168 162 166 167 176 176 178 178 175 174 180 184 183 176 174 188 182 198 210 206 231 234 240 248 224 243 247 249 231 228 221 220 217 213 218 125 250 211 173 188 181 204 252 97 56 356 316 331 31 31 56 67 56 76 94 98 103 98
191 193 192 189 185 192 186 184 188 187 188 183 182 185 185 181 185 181 188 183 178 186 188 192 190 190 183 176 176 169 173 180 190 188 192 185 184 190 184 184 193 198 188 193 198 209 218 225 233 245 249 237 240 235 228 226 208 214 232 245 268 273 282 220 221 192 150 159 153 166 84 91 286 276 245 48 59 52 48 29 31 71 91 102 102
201 198 194 193 193 187 187 188 188 190 187 183 189 187 186 186 185 187 192 185 187 189 188 191 195 196 194 183 178 178 181 184 189 199 184 193 192 186 188 199 199 207 184 210 205 208 219 221 227 230 228 238 224 247 250 259 268 252 226 252 235 248 255 268 225 122 142 147 139 176 112 224 262 285 45 58 51 40 30 40 19 99 92 118 142
204 198 192 198 194 187 189 191 187 190 186 183 191 188 189 190 193 193 193 186 195 191 187 194 202 193 199 192 189 184 186 188 193 196 187 196 194 190 192 205 208 206 190 208 212 206 213 218 231 232 226 232 221 234 227 248 252 250 239 230 241 222 213 223 235 122 159 138 150 160 172 212 241 79 87 76 54 35 12 34 174 161 147 162 119
197 200 200 197 191 192 197 191 187 182 183 189 189 193 190 194 195 195 192 193 195 192 193 198 205 202 199 191 191 190 185 189 192 191 203 194 193 191 202 205 215 213 202 212 206 211 213 210 214 216 222 217 225 229 201 215 228 237 233 220 230 239 234 226 212 128 157 144 154 158 189 184 104 103 104 88 72 49 29 205 172 147 136 123 125
197 202 199 194 188 196 199 195 187 180 183 192 187 191 192 193 194 193 198 196 191 196 199 200 207 209 200 196 191 192 187 190 192 193 196 194 195 199 204 196 217 215 205 211 204 214 212 218 222 220 221 205 222 229 216 197 228 232 194 217 233 231 237 218 208 156 154 151 153 162 174 143 101 95 92 99 92 83 117 206 202 133 131 131 125
206 198 196 193 196 194 197 198 192 184 187 191 189 194 192 189 188 196 197 193 195 196 199 201 205 211 205 201 196 191 193 190 195 195 196 195 194 202 206 209 214 210 206 211 208 209 213 220 231 221 222 217 204 222 205 212 234 257 211 236 223 233 229 208 213 146 161 154 160 161 169 146 118 99 94 88 101 131 181 218 228 146 144 139 129
201 197 192 200 198 196 195 195 197 195 194 191 190 192 196 193 187 191 192 190 195 199 203 197 202 207 209 204 202 196 193 196 189 200 197 193 196 199 203 213 214 207 202 201 205 204 205 204 220 194 215 200 212 230 211 229 235 243 249 237 206 221 215 213 214 174 159 166 164 159 165 149 130 118 103 94 92 152 205 247 170 119 127 122 128
199 197 198 198 194 195 192 198 195 201 197 198 193 195 196 195 190 187 189 189 192 199 201 197 200 206 206 212 204 202 198 193 192 191 201 199 198 204 208 214 208 201 196 202 201 205 196 206 194 196 209 219 223 228 213 227 244 257 253 231 220 220 199 210 200 171 168 163 158 159 162 153 147 133 125 109 77 19 341 298 125 131 132 130 128
202 199 198 193 197 197 194 196 192 199 199 201 199 197 197 198 197 193 189 193 195 200 199 197 198 204 205 212 210 204 202 198 190 189 195 203 204 209 214 215 211 200 204 205 205 206 204 208 210 193 201 229 223 242 221 234 241 250 257 251 240 210 210 221 208 171 168 151 161 159 160 159 153 146 138 125 98 45 40 40 106 115 117 131 135
201 195 195 193 197 198 196 198 194 196 197 198 198 197 190 197 199 198 197 193 201 207 205 196 197 200 205 209 211 209 205 201 195 189 192 201 209 214 218 213 207 203 207 208 209 213 200 205 215 219 204 219 217 236 244 230 243 245 255 249 243 218 207 200 204 177 150 161 160 159 155 165 157 149 142 134 101 84 62 70 64 53 47 102 131
202 200 197 193 196 194 197 199 195 194 194 195 196 196 193 191 195 200 197 200 207 209 209 200 206 206 202 210 208 209 210 205 196 194 197 202 204 211 218 212 202 203 207 206 215 212 210 199 215 221 215 212 220 223 237 239 235 247 251 242 240 219 220 206 207 153 161 164 168 169 174 160 160 159 149 141 130 102 85 73 71 62 49 59 116
203 200 200 199 195 198 198 200 195 192 194 192 194 196 190 191 191 194 202 209 210 211 204 207 210 209 210 208 207 209 210 209 203 196 201 201 206 211 215 210 198 201 204 209 215 214 211 212 210 225 224 218 211 213 220 218 227 241 249 246 243 222 220 216 168 172 174 176 176 172 148 165 162 161 152 152 142 121 105 87 81 74 54 55 92
204 199 199 198 199 198 198 196 197 190 187 190 185 190 187 189 195 202 213 213 212 209 209 209 207 213 214 208 208 211 211 210 209 205 204 204 207 209 211 209 204 198 203 206 212 207 208 210 219 216 219 235 244 236 227 215 242 248 258 280 272 273 258 221 186 190 186 174 173 159 166 162 161 161 158 156 149 134 119 109 98 96 79 67 69
205 202 198 202 202 198 188 199 194 184 184 186 187 186 191 197 205 205 211 206 208 209 211 210 210 213 211 211 211 213 213 213 214 209 210 210 212 209 208 213 206 204 205 211 208 209 209 208 213 208 210 221 242 228 236 179 191 274 302 297 299 299 267 228 216 196 193 185 164 163 154 153 164 161 168 155 156 145 137 128 121 113 101 85 70
207 202 202 204 204 197 196 199 185 190 192 190 186 191 195 196 195 206 206 204 204 205 214 210 212 212 211 212 214 215 213 212 210 210 211 210 211 211 211 211 205 209 212 212 211 211 209 212 200 216 216 208 225 207 209 131 224 214 238 300 307 301 296 251 238 238 203 177 174 166 160 164 166 168 156 157 162 156 149 143 134 131 130 121 105
201 201 206 203 200 201 205 195 194 192 195 191 186 196 197 200 197 201 198 207 215 212 216 207 202 211 213 213 214 215 215 216 210 209 211 213 215 214 217 215 213 209 212 216 212 212 209 210 203 205 212 227 227 220 193 189 203 155 114 66 289 280 305 287 285 242 217 194 173 173 172 168 171 168 165 162 166 165 158 151 147 143 147 134 125
203 203 202 202 202 205 204 199 198 195 193 195 197 198 196 196 203 189 194 193 195 198 203 204 205 210 220 213 216 214 213 217 213 212 215 216 215 218 219 218 219 213 215 217 214 216 210 213 209 212 197 213 213 230 199 198 166 131 244 211 223 146 305 251 217 258 187 180 187 185 171 175 162 155 158 172 178 170 163 156 158 160 155 152 142
204 202 200 201 203 204 202 198 196 197 197 195 197 189 178 177 169 127 137 182 174 180 195 220 213 214 219 215 220 209 212 214 213 212 212 217 216 218 218 220 219 217 216 222 221 218 213 211 208 206 204 210 217 218 218 196 199 196 160 108 36 298 222 254 186 265 160 173 222 195 190 165 166 171 177 185 173 173 161 163 163 162 164 157 151
206 205 202 204 203 205 198 195 197 197 200 197 190 183 186 183 176 182 190 198 210 201 208 213 208 209 215 218 216 208 212 215 213 212 213 213 217 215 217 217 219 218 214 221 226 222 220 215 211 209 214 214 214 203 221 216 209 209 203 188 151 184 189 242 114 266 355 252 164 185 200 192 174 170 175 166 176 176 174 169 166 173 174 165 157
208 201 202 204 206 204 198 195 197 200 198 193 185 185 188 194 195 199 203 205 213 222 222 222 217 221 219 215 215 207 210 212 214 211 211 211 215 214 213 216 218 219 215 219 224 222 220 218 211 214 216 212 207 218 210 206 209 247 231 231 213 159 162 131 211 73 284 258 162 174 215 212 195 175 175 185 175 165 180 172 174 175 180 174 161
203 198 200 199 201 204 198 199 199 198 194 188 186 190 194 195 199 206 208 214 215 225 212 221 220 208 212 219 213 214 209 212 214 213 213 212 213 218 215 217 219 222 217 223 228 227 229 226 216 218 219 213 208 216 214 192 194 216 203 226 236 209 230 86 152 179 175 183 225 360 55 147 213 231 201 180 181 180 170 178 179 179 178 183 169
200 199 198 198 200 202 201 198 198 194 193 189 190 195 198 196 200 203 214 222 223 230 213 214 217 211 223 218 218 219 216 216 217 215 214 214 212 217 218 221 223 226 222 235 236 232 229 226 219 216 218 220 216 220 217 208 204 213 173 225 223 226 224 219 127 130 154 181 237 195 187 41 177 239 224 207 199 186 180 178 180 177 179 181 178
202 201 201 198 200 196 196 194 202 196 193 193 193 196 197 195 201 207 214 221 217 224 203 217 215 205 225 223 221 220 219 221 221 223 221 217 217 215 220 224 227 228 225 233 236 236 234 232 228 223 220 223 216 215 220 216 209 212 198 198 201 214 224 239 202 181 245 191 196 201 187 179 203 225 199 207 202 197 188 176 177 182 182 181 178
205 202 204 201 196 193 194 198 204 200 193 194 192 197 196 197 206 209 214 219 212 210 215 224 212 210 222 222 218 220 216 221 218 224 225 223 223 218 219 224 228 230 231 234 235 235 233 232 230 227 222 221 220 220 222 223 214 215 213 205 208 199 204 209 213 202 192 192 190 218 199 202 209 213 226 206 202 202 191 185 186 188 186 183 176